Flag for U.S.A. Weather past 2 weeks in Stockton, California, U.S.A.

Now
86 °F

Sunny.


Feels Like: 85 °F
Forecast: 59 / 85 °F
Wind: 6 mph from Northwest

Location: Stockton Metropolitan Airport

Current Time: Sep 22, 2014 at 3:19:11 PM

Latest Report: Sep 22, 2014 at 2:55 PM


Visibility: 10 mi

Pressure: 29.93 "Hg

Humidity: 37%

Dew point: 57 °F

Location of StocktonLocation

Historic Weather in Stockton — Graph

°F

Stockton temperature yesterday

Maximum temperature yesterday: 83 °F (at 1:55 PM)
Minimum temperature yesterday: 61 °F (at 6:55 AM)
Average temperature yesterday: 72 °F

Past Weeks' High & Low Weather Summary

 TemperatureHumidityPressure
High101 °F (Sep 12, 4:55 PM)90% (Sep 22, 5:55 AM)30.01 "Hg (Sep 22, 5:55 AM)
Low53 °F (Sep 9, 6:55 AM)14% (Sep 10, 4:55 PM)29.68 "Hg (Sep 17, 4:55 PM)
Average75 °F51%29.83 "Hg
* Reported Sep 7 1:55 PM — Sep 22 1:55 PM, Stockton, Weather by CustomWeather, © 2014

Note: Actual official high and low records may vary slightly from our data, if they occured in-between our weather recording intervals... More about our weather records

Advertising

Stockton weather history for previous 24 hours

 ConditionsComfort  
Time TempWeatherWind HumidityBarometerVisibility
1:55 PM
Sep 22
83 °FSunny.7 mph41%29.95 "Hg10 mi
12:55 PM81 °FSunny.7 mph45%29.98 "Hg10 mi
11:55 AM77 °FSunny.No wind56%29.99 "Hg10 mi
10:55 AM74 °FSunny.5 mph60%30.01 "Hg10 mi
9:55 AM71 °FSunny.3 mph66%30.01 "Hg10 mi
8:55 AM67 °FSunny.No wind76%30.00 "Hg10 mi
7:55 AM61 °FSunny.3 mph87%29.99 "Hg10 mi
6:55 AM59 °FClear.3 mph90%29.98 "Hg10 mi
5:55 AM59 °FClear.No wind90%29.97 "Hg10 mi
4:55 AM60 °FClear.No wind86%29.96 "Hg10 mi
3:55 AM60 °FClear.No wind86%29.96 "Hg10 mi
2:55 AM61 °FClear.3 mph83%29.96 "Hg10 mi
1:55 AM62 °FClear.No wind83%29.97 "Hg10 mi
12:55 AM64 °FClear.No wind78%29.96 "Hg10 mi
11:55 PM
Sep 21
66 °FClear.8 mph75%29.96 "Hg10 mi
10:55 PM67 °FClear.9 mph71%29.96 "Hg10 mi
9:55 PM68 °FClear.9 mph70%29.96 "Hg10 mi
8:55 PM70 °FClear.10 mph66%29.95 "Hg10 mi
7:55 PM72 °FSunny.10 mph61%29.94 "Hg10 mi
6:55 PM76 °FSunny.17 mph50%29.92 "Hg10 mi
5:55 PM80 °FSunny.13 mph47%29.90 "Hg10 mi
4:55 PM82 °FSunny.9 mph43%29.90 "Hg10 mi
3:55 PM83 °FSunny.9 mph41%29.91 "Hg10 mi
Weather by CustomWeather, © 2014

See weather overviewHow to use our weather pages